Weather History for Dixon AP, Dixon, WY, WY

Change the Weather History Date:

Sunday, March 30, 2014

  Actual Average (KCAG) Record (KCAG)
Temperature  
Mean Temperature 44 °F 38 °F  
Max Temperature 57 °F 52 °F 69 °F (2012)
Min Temperature 32 °F 24 °F 8 °F (2009)
Degree Days  
Heating Degree Days 20 27  
Month to date heating degree days 986  
Since 1 July heating degree days 7312  
Cooling Degree Days 0 0  
Month to date cooling degree days 0  
Year to date cooling degree days 0  
Moisture  
Dew Point 22 °F    
Average Humidity 44    
Maximum Humidity 99    
Minimum Humidity 25    
Precipitation  
Precipitation 0.00 in 0.05 in 0.48 in (2008)
Month to date precipitation 1.24  
Year to date precipitation 2.94  
Sea Level Pressure  
Sea Level Pressure 29.76 in    
Wind  
Wind Speed 14 mph (SSW)    
Max Wind Speed 30 mph    
Max Gust Speed 46 mph    
Visibility 8 miles    
Events Rain , Snow    
T = Trace of Precipitation, MM = Missing Value Source: NWS Daily Summary

Daily Weather History Graph

Daily Weather History Graph

Search for Another Location

Airport:

Trip Planner

Search our weather history database for the weather conditions in past years. The results will help you decide how hot, cold, wet, or windy it might be!

Date:

Astronomy

Mar. 30, 2014 Rise Set
Actual Time 6:56 AM MDT 7:32 PM MDT
Civil Twilight 6:28 AM MDT 8:00 PM MDT
Nautical Twilight 5:56 AM MDT 8:33 PM MDT
Astronomical Twilight 5:22 AM MDT 9:07 PM MDT
Moon 6:44 AM MDT (3/30) 7:49 PM MDT (3/30)
Length of Visible Light 13h 31m
Length of Day
12h 36m
Waning Crescent, 0% of the Moon is Illuminated
Mar 30
Waning Crescent
Mar 30
New
Apr 7
First Quarter
Apr 15
Full
Apr 22
Last Quarter

Hourly Weather History & Observations

Time (MDT) Temp. Windchill Dew Point Humidity Pressure Visibility Wind Dir Wind Speed Gust Speed Precip Events Conditions
12:15 AM 45.5 °F 43.2 °F 17.4 °F 33% 29.96 in 10.0 mi SSE 4.6 mph - N/A   Clear
12:35 AM 47.1 °F - 17.4 °F 31% 29.95 in 10.0 mi South 11.5 mph - N/A   Scattered Clouds
12:55 AM 47.8 °F - 17.1 °F 29% 29.95 in 10.0 mi South 9.2 mph 18.4 mph N/A   Scattered Clouds
1:15 AM 48.2 °F - 17.1 °F 29% 29.94 in 10.0 mi South 9.2 mph 16.1 mph N/A   Clear
1:35 AM 47.5 °F - 17.4 °F 30% 29.93 in 10.0 mi South 9.2 mph 18.4 mph N/A   Clear
1:55 AM 48.4 °F - 16.9 °F 29% 29.92 in 10.0 mi South 16.1 mph 26.5 mph N/A   Clear
2:15 AM 48.7 °F - 16.5 °F 28% 29.90 in 10.0 mi South 17.3 mph 26.5 mph N/A   Clear
2:35 AM 48.4 °F - 16.5 °F 28% 29.89 in 10.0 mi South 17.3 mph 28.8 mph N/A   Clear
2:55 AM 48.9 °F - 16.0 °F 27% 29.89 in 10.0 mi SSW 17.3 mph 29.9 mph N/A   Clear
3:15 AM 48.9 °F - 16.2 °F 27% 29.89 in 10.0 mi South 18.4 mph 28.8 mph N/A   Clear
3:35 AM 48.6 °F - 16.5 °F 28% 29.87 in 10.0 mi South 16.1 mph 26.5 mph N/A   Clear
3:55 AM 48.9 °F - 16.0 °F 27% 29.87 in 10.0 mi South 17.3 mph 27.6 mph N/A   Clear
4:15 AM 48.9 °F - 16.0 °F 27% 29.86 in 10.0 mi SSW 20.7 mph 29.9 mph N/A   Clear
4:35 AM 49.1 °F - 16.2 °F 27% 29.86 in 10.0 mi SSW 13.8 mph 25.3 mph N/A   Clear
4:55 AM 49.3 °F - 16.2 °F 27% 29.85 in 10.0 mi SSW 15.0 mph 21.9 mph N/A   Clear
5:15 AM 49.3 °F - 16.2 °F 27% 29.85 in 10.0 mi South 19.6 mph 24.2 mph N/A   Clear
5:35 AM 49.1 °F - 16.2 °F 27% 29.84 in 10.0 mi South 15.0 mph - N/A   Clear
5:55 AM 49.3 °F - 15.8 °F 26% 29.84 in 10.0 mi South 13.8 mph 21.9 mph N/A   Clear
6:15 AM 48.7 °F - 15.8 °F 27% 29.84 in 10.0 mi South 12.7 mph 21.9 mph N/A   Clear
6:35 AM 48.2 °F - 16.2 °F 28% 29.83 in 10.0 mi South 10.4 mph - N/A   Clear
6:55 AM 47.5 °F - 16.5 °F 29% 29.83 in 10.0 mi South 8.1 mph - N/A   Clear
7:15 AM 47.7 °F - 16.5 °F 29% 29.83 in 10.0 mi South 9.2 mph - N/A   Clear
7:35 AM 47.3 °F - 16.9 °F 30% 29.83 in 10.0 mi South 8.1 mph - N/A   Clear
7:55 AM 48.0 °F - 17.2 °F 29% 29.83 in 10.0 mi South 8.1 mph - N/A   Clear
8:15 AM 49.3 °F - 17.2 °F 28% 29.82 in 10.0 mi South 5.8 mph - N/A   Clear
8:35 AM 50.2 °F - 17.2 °F 27% 29.82 in 10.0 mi South 6.9 mph - N/A   Clear
8:55 AM 51.3 °F - 17.8 °F 27% 29.81 in 10.0 mi South 12.7 mph 16.1 mph N/A   Clear
9:15 AM 51.8 °F - 17.1 °F 25% 29.81 in 10.0 mi SSW 13.8 mph 21.9 mph N/A   Clear
9:35 AM 51.4 °F - 17.1 °F 26% 29.80 in 10.0 mi SSW 13.8 mph 24.2 mph N/A   Clear
9:55 AM 51.4 °F - 17.1 °F 26% 29.79 in 10.0 mi South 12.7 mph 23.0 mph N/A   Clear
10:15 AM 52.2 °F - 17.2 °F 25% 29.79 in 10.0 mi South 17.3 mph 23.0 mph N/A   Clear
10:35 AM 53.1 °F - 17.8 °F 25% 29.78 in 10.0 mi South 20.7 mph 31.1 mph N/A   Clear
10:55 AM 54.3 °F - 18.7 °F 25% 29.78 in 10.0 mi South 23.0 mph 33.4 mph N/A   Clear
11:15 AM 54.5 °F - 19.4 °F 25% 29.76 in 10.0 mi South 20.7 mph 33.4 mph N/A   Clear
11:35 AM 54.9 °F - 19.8 °F 25% 29.76 in 10.0 mi SSW 25.3 mph 38.0 mph N/A   Scattered Clouds
11:55 AM 54.9 °F - 21.2 °F 27% 29.75 in 10.0 mi SSW 24.2 mph 43.7 mph N/A   Mostly Cloudy
12:15 PM 55.6 °F - 21.2 °F 26% 29.74 in 10.0 mi SSW 24.2 mph 46.0 mph N/A   Scattered Clouds
12:35 PM 57.6 °F - 21.4 °F 25% 29.73 in 10.0 mi SSW 29.9 mph 39.1 mph N/A   Clear
12:55 PM 55.6 °F - 20.7 °F 26% 29.71 in 10.0 mi SSW 25.3 mph 43.7 mph N/A   Scattered Clouds
1:15 PM 54.9 °F - 20.5 °F 26% 29.71 in 10.0 mi SW 23.0 mph 42.6 mph N/A   Mostly Cloudy
1:35 PM 53.6 °F - 21.7 °F 29% 29.70 in 10.0 mi SSW 27.6 mph 38.0 mph N/A   Mostly Cloudy
1:55 PM 53.6 °F - 22.8 °F 30% 29.68 in 10.0 mi South 21.9 mph 31.1 mph N/A   Overcast
2:15 PM 53.6 °F - 22.8 °F 30% 29.67 in 10.0 mi SSW 24.2 mph 29.9 mph N/A   Mostly Cloudy
2:35 PM 51.1 °F - 23.0 °F 33% 29.66 in 10.0 mi SSW 17.3 mph 33.4 mph N/A   Overcast
2:55 PM 52.3 °F - 22.1 °F 31% 29.65 in 10.0 mi SSW 28.8 mph 40.3 mph N/A   Mostly Cloudy
3:15 PM 51.3 °F - 22.5 °F 32% 29.65 in 10.0 mi South 23.0 mph 43.7 mph N/A   Mostly Cloudy
3:35 PM 51.4 °F - 22.1 °F 32% 29.63 in 10.0 mi SW 17.3 mph 28.8 mph N/A   Overcast
3:55 PM 53.8 °F - 19.6 °F 26% 29.59 in 10.0 mi SSW 24.2 mph 31.1 mph N/A   Overcast
4:15 PM 53.1 °F - 19.4 °F 27% 29.59 in 10.0 mi South 24.2 mph 32.2 mph N/A   Overcast
4:35 PM 52.7 °F - 20.8 °F 29% 29.57 in 10.0 mi SSW 19.6 mph 31.1 mph N/A   Mostly Cloudy
4:55 PM 53.4 °F - 18.5 °F 25% 29.56 in 10.0 mi South 17.3 mph 33.4 mph N/A   Mostly Cloudy
5:15 PM 53.2 °F - 20.3 °F 28% 29.56 in 10.0 mi South 26.5 mph 35.7 mph N/A   Overcast
5:35 PM 51.8 °F - 21.9 °F 31% 29.56 in 10.0 mi SSW 12.7 mph 26.5 mph N/A   Overcast
5:55 PM 47.5 °F - 29.1 °F 49% 29.61 in 10.0 mi SSW 29.9 mph 44.9 mph N/A Rain Light Rain
6:15 PM 40.6 °F 32.0 °F 35.6 °F 82% 29.63 in 7.0 mi SW 17.3 mph 27.6 mph N/A Rain Rain
6:35 PM 40.6 °F 32.3 °F 35.8 °F 83% 29.62 in 10.0 mi SW 16.1 mph 21.9 mph N/A Rain Rain
6:55 PM 38.3 °F 28.1 °F 34.3 °F 86% 29.63 in 5.0 mi WSW 20.7 mph 36.8 mph N/A Rain Light Rain
7:15 PM 36.7 °F 28.0 °F 34.3 °F 91% 29.64 in 10.0 mi WSW 13.8 mph 23.0 mph N/A Rain Light Rain
7:35 PM 36.5 °F 28.2 °F 34.5 °F 93% 29.67 in 10.0 mi SW 12.7 mph 20.7 mph N/A Rain Light Rain
7:55 PM 34.2 °F 24.4 °F 32.5 °F 94% 29.67 in 1.2 mi WSW 15.0 mph 25.3 mph N/A Snow Snow
8:15 PM 33.3 °F 27.1 °F 32.4 °F 96% 29.65 in 1.2 mi SSW 6.9 mph - N/A Snow Snow
8:35 PM 33.8 °F 24.8 °F 32.9 °F 96% 29.65 in 2.5 mi South 12.7 mph 16.1 mph N/A Snow Light Snow
8:55 PM 34.7 °F 25.5 °F 32.2 °F 91% 29.67 in 7.0 mi SSW 13.8 mph 27.6 mph N/A Snow Light Snow
9:15 PM 34.3 °F 25.0 °F 32.2 °F 92% 29.69 in 2.5 mi SSW 13.8 mph 20.7 mph N/A Snow Light Snow
9:35 PM 33.1 °F 21.5 °F 32.0 °F 96% 29.71 in 0.5 mi WSW 19.6 mph 29.9 mph N/A Snow Snow
9:55 PM 32.5 °F 22.7 °F 32.0 °F 98% 29.72 in 1.8 mi West 13.8 mph 20.7 mph N/A Snow Light Snow
10:15 PM 32.5 °F 23.2 °F 32.0 °F 98% 29.73 in 0.8 mi WSW 12.7 mph - N/A Snow Light Snow
10:35 PM 32.4 °F 23.0 °F 32.0 °F 99% 29.75 in 1.5 mi WSW 12.7 mph 18.4 mph N/A Snow Light Snow
10:55 PM 32.0 °F 22.1 °F 31.1 °F 96% 29.76 in 1.8 mi West 13.8 mph - N/A Snow Light Snow
11:15 PM 32.0 °F 22.5 °F 30.9 °F 96% 29.77 in 2.5 mi WSW 12.7 mph 20.7 mph N/A Snow Light Snow
11:35 PM 32.0 °F 22.5 °F 30.2 °F 93% 29.79 in 2.5 mi WSW 12.7 mph - N/A Snow Light Snow
11:55 PM 32.0 °F 22.5 °F 30.0 °F 92% 29.79 in 3.0 mi SW 12.7 mph 18.4 mph N/A Snow Light Snow